Powrót do katalogu

BREEZE-KM R/B

AktywnyPO
NORAD 40923·ROCKET BODY·🇷🇺 Russia

Wystrzelony Sep 23, 2015 z Plesetsk Cosmodrome

Loading…

Następne Przeloty (najbliższe 24 godziny)

TLE

ŚwieżeSource: Space-Track

Epoka: Sep 14, 2026, 12:42 UTC

1 40923U 15050D   26257.52941760  .00000016  00000-0  26452-4 0  9995
2 40923  82.4907 201.6196 0201348 253.3878 104.5030 12.80444149513008

Śledź BREEZE-KM R/B w czasie rzeczywistym z AllMySat

Download on the App Store